Houghton Lake, MI

4:06 AM EDT on June 29, 2017 (GMT -0400)
Roscommon County

Weather History for KHTL - April, 2013

Change the Weather History Date:

Monday, April 15, 2013

  Actual Average Record
Temperature  
Mean Temperature 47 °F 42 °F  
Max Temperature 59 °F 54 °F 82 °F (2002)
Min Temperature 35 °F 31 °F 6 °F (1943)
Degree Days  
Heating Degree Days 18 23  
Month to date heating degree days 471 387  
Since 1 July heating degree days 7000 7372  
Cooling Degree Days 0 0  
Month to date cooling degree days 0 0  
Year to date cooling degree days 0 0  
Moisture  
Dew Point 42 °F    
Average Humidity 81    
Maximum Humidity 96    
Minimum Humidity 66    
Precipitation  
Precipitation 0.27 in 0.09 in 0.99 in (1991)
Month to date precipitation 3.41 1.28  
Year to date precipitation 9.93 5.84  
Snow  
Snow 0.00 in 0.10 in 3.40 in (1980)
Month to date snowfall 2.5 2.7  
Since 1 July snowfall 59.6 65.5  
Snow Depth 1.00 in    
Sea Level Pressure  
Sea Level Pressure 29.86 in    
Wind  
Wind Speed 8 mph (SSW)    
Max Wind Speed 17 mph    
Max Gust Speed 22 mph    
Visibility 7 miles    
Events Fog , Rain    
T = Trace of Precipitation, MM = Missing Value Source: NWS Daily Summary

Daily Weather History Graph

Daily Weather History Graph

Search for Another Location

Airport or City:

Trip Planner

Search our weather history database for the weather conditions in past years. The results will help you decide how hot, cold, wet, or windy it might be!

Date:

Astronomy

Apr. 15, 2013 Rise Set
Actual Time 6:54 AM EDT 8:23 PM EDT
Civil Twilight 6:24 AM EDT 8:53 PM EDT
Nautical Twilight 5:47 AM EDT 9:30 PM EDT
Astronomical Twilight 5:08 AM EDT 10:10 PM EDT
Moon 10:13 AM EDT (4/15) 12:41 AM EDT (4/15)
Length of Visible Light 14h 29m
Length of Day
13h 29m
Waxing Crescent, 24% of the Moon is Illuminated
Apr 15
Waxing Crescent
Apr 18
First Quarter
Apr 25
Full
May 2
Last Quarter
May 9
New

Hourly Weather History & Observations

Time (EDT) Temp. Windchill Dew Point Humidity Pressure Visibility Wind Dir Wind Speed Gust Speed Precip Events Conditions
12:53 AM 36.0 °F 28.0 °F 28.0 °F 73% 29.94 in 10.0 mi ESE 11.5 mph - N/A   Clear
1:53 AM 36.0 °F 29.0 °F 27.0 °F 70% 29.92 in 10.0 mi East 9.2 mph - N/A   Clear
2:53 AM 36.0 °F 28.0 °F 28.0 °F 73% 29.90 in 10.0 mi ESE 11.5 mph 18.4 mph N/A   Clear
3:53 AM 36.0 °F 29.6 °F 28.9 °F 76% 29.88 in 10.0 mi East 8.1 mph - N/A   Clear
4:53 AM 37.0 °F 31.0 °F 30.0 °F 76% 29.90 in 10.0 mi SE 8.1 mph - N/A   Scattered Clouds
5:53 AM 39.0 °F 34.0 °F 30.9 °F 73% 29.89 in 10.0 mi Variable 6.9 mph - N/A   Clear
6:53 AM 37.0 °F 29.8 °F 30.9 °F 79% 29.86 in 10.0 mi ESE 10.4 mph - N/A   Clear
7:53 AM 39.0 °F 33.4 °F 32.0 °F 76% 29.86 in 10.0 mi ESE 8.1 mph - N/A   Scattered Clouds
8:53 AM 42.1 °F 37.1 °F 34.0 °F 73% 29.86 in 10.0 mi SE 8.1 mph - N/A   Mostly Cloudy
9:53 AM 44.1 °F 38.6 °F 37.9 °F 79% 29.85 in 10.0 mi SSE 10.4 mph 17.3 mph 0.00 in   Mostly Cloudy
10:53 AM 48.9 °F - 39.9 °F 71% 29.83 in 10.0 mi South 13.8 mph 21.9 mph N/A   Overcast
11:53 AM 54.0 °F - 43.0 °F 66% 29.82 in 10.0 mi South 13.8 mph 20.7 mph N/A   Overcast
12:53 PM 55.0 °F - 44.1 °F 67% 29.84 in 10.0 mi South 6.9 mph - N/A   Overcast
1:53 PM 57.0 °F - 46.0 °F 67% 29.83 in 10.0 mi South 9.2 mph - N/A   Overcast
2:53 PM 57.9 °F - 46.9 °F 67% 29.83 in 10.0 mi South 8.1 mph - N/A   Overcast
3:53 PM 57.9 °F - 48.0 °F 70% 29.83 in 10.0 mi SSW 5.8 mph - N/A   Overcast
4:53 PM 51.1 °F - 46.0 °F 83% 29.86 in 8.0 mi West 6.9 mph - 0.00 in Rain Light Rain
5:16 PM 51.8 °F - 50.0 °F 94% 29.83 in 2.5 mi WSW 5.8 mph - 0.01 in Rain Light Rain
5:30 PM 51.8 °F - 50.0 °F 94% 29.83 in 1.5 mi WSW 3.5 mph - 0.02 in Rain Light Rain
5:36 PM 51.8 °F - 51.8 °F 100% 29.83 in 2.0 mi SW 4.6 mph - 0.02 in Rain Light Rain
5:46 PM 51.8 °F - 51.8 °F 100% 29.83 in 1.5 mi WSW 3.5 mph - 0.02 in   Overcast
5:53 PM 51.1 °F - 51.1 °F 100% 29.86 in 0.8 mi Calm Calm - 0.02 in   Overcast
6:10 PM 48.2 °F - 48.2 °F 100% 29.84 in 0.2 mi Calm Calm - N/A Fog Fog
6:18 PM 48.2 °F - 48.2 °F 100% 29.85 in 0.2 mi WSW 3.5 mph - N/A Fog Fog
6:34 PM 50.0 °F - 48.2 °F 94% 29.84 in 1.2 mi WSW 5.8 mph - 0.01 in Rain Rain
6:38 PM 50.0 °F - 48.2 °F 94% 29.84 in 1.5 mi WSW 5.8 mph - 0.02 in Rain Light Rain
6:41 PM 51.8 °F - 50.0 °F 94% 29.84 in 2.0 mi WSW 6.9 mph - 0.03 in Rain Light Rain
6:50 PM 51.8 °F - 50.0 °F 94% 29.84 in 5.0 mi SW 8.1 mph - 0.03 in Rain Light Rain
6:53 PM 51.1 °F - 50.0 °F 96% 29.87 in 5.0 mi SW 9.2 mph - 0.04 in Rain Light Rain
7:53 PM 51.1 °F - 50.0 °F 96% 29.88 in 5.0 mi SSW 6.9 mph - 0.02 in Rain Light Rain
8:53 PM 50.0 °F - 48.0 °F 93% 29.88 in 5.0 mi WSW 3.5 mph - 0.04 in Rain Light Rain
9:53 PM 46.0 °F 43.9 °F 44.1 °F 93% 29.89 in 8.0 mi WSW 4.6 mph - 0.09 in Rain Light Rain
10:53 PM 46.0 °F 44.8 °F 44.1 °F 93% 29.88 in 8.0 mi SW 3.5 mph - 0.01 in Rain Light Rain
11:53 PM 44.1 °F 40.8 °F 42.1 °F 93% 29.90 in 10.0 mi SW 5.8 mph - 0.02 in Rain Light Rain